Time,TemperatureF,DewpointF,PressureIn,WindDirection,WindDirectionDegrees,WindSpeedMPH,WindSpeedGustMPH,Humidity,HourlyPrecipIn,Conditions,Clouds,dailyrainin,SoftwareType,DateUTC
2013-05-03 00:03:00,73.0,68.0,29.80,East,85,8.0,18.0,85,0.00,,,1.45,,2013-05-03 04:03:00,
2013-05-03 00:12:00,73.0,68.0,29.80,East,85,8.0,18.0,85,0.00,,,1.45,,2013-05-03 04:12:00,
2013-05-03 00:23:00,73.0,69.0,29.80,ENE,74,9.0,18.0,86,0.00,,,1.45,,2013-05-03 04:23:00,
2013-05-03 00:32:00,74.0,70.0,29.80,NNE,25,10.0,18.0,86,0.00,,,1.45,,2013-05-03 04:32:00,
2013-05-03 00:42:00,74.0,70.0,29.80,NNE,25,10.0,18.0,86,0.00,,,1.45,,2013-05-03 04:42:00,
2013-05-03 00:53:00,74.0,70.0,29.79,NE,56,13.0,22.0,86,0.00,,,1.45,,2013-05-03 04:53:00,
2013-05-03 01:02:00,74.0,70.0,29.78,ENE,59,7.0,14.0,86,0.00,,,1.45,,2013-05-03 05:02:00,
2013-05-03 01:12:00,74.0,70.0,29.78,ENE,59,7.0,14.0,86,0.00,,,1.45,,2013-05-03 05:12:00,
2013-05-03 01:21:00,74.0,69.0,29.78,East,89,8.0,13.0,85,0.00,,,1.45,,2013-05-03 05:21:00,
2013-05-03 01:32:00,74.0,69.0,29.77,ENE,77,2.0,8.0,85,0.00,,,1.45,,2013-05-03 05:32:00,
2013-05-03 01:42:00,74.0,69.0,29.77,ENE,77,2.0,8.0,85,0.00,,,1.45,,2013-05-03 05:42:00,
2013-05-03 01:52:00,74.0,69.0,29.75,NE,36,4.0,7.0,85,0.00,,,1.45,,2013-05-03 05:52:00,
2013-05-03 02:02:00,73.0,69.0,29.75,NNE,30,6.0,10.0,88,0.04,,,1.49,,2013-05-03 06:02:00,
2013-05-03 02:12:00,73.0,69.0,29.75,NNE,30,6.0,10.0,88,0.04,,,1.49,,2013-05-03 06:12:00,
2013-05-03 02:21:00,72.0,69.0,29.73,NE,38,9.0,23.0,89,0.06,,,1.51,,2013-05-03 06:21:00,
2013-05-03 02:32:00,71.0,68.0,29.72,SE,131,8.0,18.0,91,0.34,,,1.79,,2013-05-03 06:32:00,
2013-05-03 02:42:00,71.0,68.0,29.72,SE,131,8.0,18.0,91,0.34,,,1.79,,2013-05-03 06:42:00,
2013-05-03 02:52:00,72.0,70.0,29.72,ESE,123,2.0,7.0,92,0.46,,,1.91,,2013-05-03 06:52:00,
2013-05-03 03:01:00,72.0,70.0,29.71,SSE,156,0.0,10.0,92,0.65,,,2.14,,2013-05-03 07:01:00,
2013-05-03 03:11:00,72.0,70.0,29.71,SSE,156,0.0,10.0,92,0.65,,,2.14,,2013-05-03 07:11:00,
2013-05-03 03:21:00,72.0,70.0,29.71,West,273,4.0,5.0,92,0.74,,,2.25,,2013-05-03 07:21:00,
2013-05-03 03:32:00,71.0,69.0,29.71,WNW,285,3.0,5.0,92,0.54,,,2.33,,2013-05-03 07:32:00,
2013-05-03 03:42:00,71.0,69.0,29.71,WNW,285,3.0,5.0,92,0.54,,,2.33,,2013-05-03 07:42:00,
2013-05-03 03:52:00,71.0,69.0,29.71,North,358,3.0,7.0,92,0.46,,,2.37,,2013-05-03 07:52:00,
2013-05-03 04:02:00,70.0,68.0,29.71,SW,225,2.0,7.0,92,0.31,,,2.45,,2013-05-03 08:02:00,
2013-05-03 04:12:00,70.0,68.0,29.71,SW,225,2.0,7.0,92,0.31,,,2.45,,2013-05-03 08:12:00,
2013-05-03 04:21:00,70.0,68.0,29.71,NE,42,3.0,5.0,93,0.22,,,2.47,,2013-05-03 08:21:00,
2013-05-03 04:32:00,70.0,68.0,29.71,NNE,27,3.0,4.0,93,0.16,,,2.49,,2013-05-03 08:32:00,
2013-05-03 04:42:00,70.0,68.0,29.71,NNE,27,3.0,4.0,93,0.16,,,2.49,,2013-05-03 08:42:00,
2013-05-03 04:53:00,70.0,68.0,29.71,SE,124,2.0,5.0,93,0.12,,,2.49,,2013-05-03 08:53:00,
2013-05-03 05:01:00,70.0,68.0,29.71,ESE,108,4.0,9.0,93,0.04,,,2.49,,2013-05-03 09:01:00,
2013-05-03 05:12:00,70.0,68.0,29.71,ESE,108,4.0,9.0,93,0.04,,,2.49,,2013-05-03 09:12:00,
2013-05-03 05:21:00,70.0,68.0,29.71,SE,128,3.0,7.0,93,0.02,,,2.49,,2013-05-03 09:21:00,
2013-05-03 05:32:00,70.0,68.0,29.72,SW,222,5.0,7.0,93,0.00,,,2.49,,2013-05-03 09:32:00,
2013-05-03 05:42:00,70.0,68.0,29.72,SW,222,5.0,7.0,93,0.00,,,2.49,,2013-05-03 09:42:00,
2013-05-03 05:53:00,69.0,67.0,29.72,SSW,205,3.0,6.0,93,0.00,,,2.49,,2013-05-03 09:53:00,
2013-05-03 06:03:00,69.0,67.0,29.72,SSW,205,0.0,3.0,93,0.00,,,2.49,,2013-05-03 10:03:00,
2013-05-03 06:12:00,69.0,67.0,29.72,SSW,205,0.0,3.0,93,0.00,,,2.49,,2013-05-03 10:12:00,
2013-05-03 06:22:00,69.0,67.0,29.74,SSW,205,3.0,4.0,93,0.00,,,2.49,,2013-05-03 10:22:00,
2013-05-03 06:32:00,69.0,67.0,29.74,SSW,212,3.0,5.0,93,0.00,,,2.49,,2013-05-03 10:32:00,
2013-05-03 06:42:00,69.0,67.0,29.74,SSW,212,3.0,5.0,93,0.00,,,2.49,,2013-05-03 10:42:00,
2013-05-03 06:52:00,69.0,67.0,29.74,SSW,204,4.0,8.0,93,0.00,,,2.49,,2013-05-03 10:52:00,
2013-05-03 07:02:00,69.0,67.0,29.74,WSW,257,4.0,7.0,93,0.00,,,2.49,,2013-05-03 11:02:00,
2013-05-03 07:11:00,69.0,67.0,29.74,WSW,257,4.0,7.0,93,0.00,,,2.49,,2013-05-03 11:11:00,
2013-05-03 07:22:00,69.0,67.0,29.74,WSW,244,2.0,7.0,93,0.00,,,2.49,,2013-05-03 11:22:00,
2013-05-03 07:32:00,69.0,67.0,29.74,SW,221,4.0,6.0,93,0.00,,,2.49,,2013-05-03 11:32:00,
2013-05-03 07:42:00,69.0,67.0,29.74,SW,221,4.0,6.0,93,0.00,,,2.49,,2013-05-03 11:42:00,
2013-05-03 07:52:00,69.0,67.0,29.74,SSW,196,6.0,8.0,93,0.00,,,2.49,,2013-05-03 11:52:00,
2013-05-03 08:02:00,69.0,67.0,29.74,South,191,5.0,8.0,93,0.00,,,2.49,,2013-05-03 12:02:00,
2013-05-03 08:11:00,69.0,67.0,29.74,South,191,5.0,8.0,93,0.00,,,2.49,,2013-05-03 12:11:00,
2013-05-03 08:21:00,68.0,66.0,29.74,SSW,204,6.0,11.0,93,0.00,,,2.49,,2013-05-03 12:21:00,
2013-05-03 08:32:00,69.0,67.0,29.74,South,177,6.0,11.0,94,0.00,,,2.49,,2013-05-03 12:32:00,
2013-05-03 08:42:00,69.0,67.0,29.74,South,177,6.0,11.0,94,0.00,,,2.49,,2013-05-03 12:42:00,
2013-05-03 08:52:00,69.0,67.0,29.74,South,184,7.0,11.0,93,0.01,,,2.50,,2013-05-03 12:52:00,
2013-05-03 09:01:00,69.0,67.0,29.75,SW,216,9.0,15.0,93,0.01,,,2.50,,2013-05-03 13:01:00,
2013-05-03 09:11:00,69.0,67.0,29.75,SW,216,9.0,15.0,93,0.01,,,2.50,,2013-05-03 13:11:00,
2013-05-03 09:22:00,70.0,68.0,29.75,SSW,209,7.0,12.0,94,0.01,,,2.50,,2013-05-03 13:22:00,
2013-05-03 09:32:00,70.0,68.0,29.75,SSW,204,9.0,12.0,93,0.01,,,2.49,,2013-05-03 13:32:00,
2013-05-03 09:42:00,70.0,68.0,29.75,SSW,204,9.0,12.0,93,0.01,,,2.49,,2013-05-03 13:42:00,
2013-05-03 09:52:00,71.0,69.0,29.76,South,183,8.0,12.0,93,0.00,,,2.49,,2013-05-03 13:52:00,
2013-05-03 10:02:00,72.0,69.0,29.76,SSW,211,8.0,17.0,91,0.00,,,2.49,,2013-05-03 14:02:00,
2013-05-03 10:11:00,72.0,69.0,29.76,SSW,211,8.0,17.0,91,0.00,,,2.49,,2013-05-03 14:11:00,
2013-05-03 10:22:00,73.0,69.0,29.76,SW,221,11.0,19.0,88,0.00,,,2.49,,2013-05-03 14:22:00,
2013-05-03 10:32:00,74.0,70.0,29.76,SW,227,10.0,17.0,86,0.00,,,2.49,,2013-05-03 14:32:00,
2013-05-03 10:42:00,74.0,70.0,29.76,SW,227,10.0,17.0,86,0.00,,,2.49,,2013-05-03 14:42:00,
2013-05-03 10:52:00,75.0,69.0,29.76,SSW,213,10.0,16.0,82,0.00,,,2.49,,2013-05-03 14:52:00,
2013-05-03 11:01:00,76.0,70.0,29.77,South,188,8.0,18.0,81,0.00,,,2.49,,2013-05-03 15:01:00,
2013-05-03 11:11:00,76.0,70.0,29.77,South,188,8.0,18.0,81,0.00,,,2.49,,2013-05-03 15:11:00,
2013-05-03 11:22:00,76.0,69.0,29.77,SSW,206,8.0,15.0,79,0.00,,,2.49,,2013-05-03 15:22:00,
2013-05-03 11:32:00,77.0,69.0,29.76,SSW,212,7.0,16.0,76,0.00,,,2.45,,2013-05-03 15:32:00,
2013-05-03 11:43:00,77.0,69.0,29.76,SSW,212,7.0,16.0,76,0.00,,,2.45,,2013-05-03 15:43:00,
2013-05-03 11:53:00,77.0,68.0,29.77,South,183,8.0,14.0,74,0.00,,,2.45,,2013-05-03 15:53:00,
2013-05-03 12:03:00,78.0,69.0,29.76,SSW,204,9.0,16.0,73,0.00,,,2.45,,2013-05-03 16:03:00,
2013-05-03 12:13:00,78.0,69.0,29.76,SSW,204,9.0,16.0,73,0.00,,,2.45,,2013-05-03 16:13:00,
2013-05-03 12:23:00,78.0,68.0,29.76,South,191,6.0,15.0,71,0.00,,,2.45,,2013-05-03 16:23:00,
2013-05-03 12:32:00,79.0,68.0,29.76,West,271,6.0,12.0,70,0.00,,,2.38,,2013-05-03 16:32:00,
2013-05-03 12:42:00,79.0,68.0,29.76,West,271,6.0,12.0,70,0.00,,,2.38,,2013-05-03 16:42:00,
2013-05-03 12:52:00,79.0,68.0,29.76,SSW,213,6.0,11.0,69,0.00,,,2.38,,2013-05-03 16:52:00,
2013-05-03 13:02:00,80.0,68.0,29.75,SSW,202,7.0,11.0,68,0.00,,,2.38,,2013-05-03 17:02:00,
2013-05-03 13:12:00,81.0,69.0,29.75,WSW,250,6.0,10.0,67,0.00,,,2.38,,2013-05-03 17:12:00,
2013-05-03 13:23:00,81.0,69.0,29.75,WSW,250,6.0,10.0,67,0.00,,,2.38,,2013-05-03 17:23:00,
2013-05-03 13:32:00,81.0,69.0,29.74,South,191,8.0,14.0,67,0.00,,,2.27,,2013-05-03 17:32:00,
2013-05-03 13:42:00,81.0,69.0,29.74,South,191,8.0,14.0,67,0.00,,,2.27,,2013-05-03 17:42:00,
2013-05-03 13:52:00,81.0,68.0,29.74,South,174,7.0,12.0,65,0.00,,,2.27,,2013-05-03 17:52:00,
2013-05-03 14:01:00,82.0,69.0,29.73,SSW,200,5.0,8.0,65,0.00,,,2.27,,2013-05-03 18:01:00,
2013-05-03 14:12:00,82.0,69.0,29.73,SSW,200,5.0,8.0,65,0.00,,,2.27,,2013-05-03 18:12:00,
2013-05-03 14:21:00,83.0,70.0,29.72,WNW,284,4.0,8.0,64,0.00,,,2.27,,2013-05-03 18:21:00,
2013-05-03 14:32:00,83.0,68.0,29.72,SE,143,3.0,11.0,61,0.00,,,2.18,,2013-05-03 18:32:00,
2013-05-03 14:42:00,83.0,68.0,29.72,SE,143,3.0,11.0,61,0.00,,,2.18,,2013-05-03 18:42:00,
2013-05-03 14:52:00,84.0,70.0,29.71,WSW,256,4.0,8.0,62,0.00,,,2.18,,2013-05-03 18:52:00,
2013-05-03 15:01:00,84.0,69.0,29.71,WSW,239,7.0,17.0,60,0.00,,,2.18,,2013-05-03 19:01:00,
2013-05-03 15:11:00,84.0,69.0,29.71,WSW,239,7.0,17.0,60,0.00,,,2.18,,2013-05-03 19:11:00,
2013-05-03 15:21:00,84.0,68.0,29.70,SSW,205,2.0,8.0,58,0.00,,,2.18,,2013-05-03 19:21:00,
2013-05-03 15:32:00,82.0,69.0,29.70,East,98,7.0,11.0,66,0.00,,,2.12,,2013-05-03 19:32:00,
2013-05-03 15:42:00,82.0,69.0,29.70,East,98,7.0,11.0,66,0.00,,,2.12,,2013-05-03 19:42:00,
2013-05-03 15:52:00,82.0,70.0,29.70,NE,52,5.0,12.0,67,0.00,,,2.12,,2013-05-03 19:52:00,
2013-05-03 16:02:00,82.0,71.0,29.69,East,92,7.0,13.0,69,0.00,,,2.12,,2013-05-03 20:02:00,
2013-05-03 16:11:00,82.0,71.0,29.69,East,92,7.0,13.0,69,0.00,,,2.12,,2013-05-03 20:11:00,
2013-05-03 16:21:00,82.0,70.0,29.68,East,86,7.0,12.0,68,0.00,,,2.12,,2013-05-03 20:21:00,
2013-05-03 16:32:00,82.0,70.0,29.68,SSE,160,9.0,14.0,68,0.00,,,2.08,,2013-05-03 20:32:00,
2013-05-03 16:42:00,82.0,70.0,29.68,SSE,160,9.0,14.0,68,0.00,,,2.08,,2013-05-03 20:42:00,
2013-05-03 16:52:00,81.0,70.0,29.68,SE,126,8.0,14.0,70,0.00,,,2.08,,2013-05-03 20:52:00,
2013-05-03 17:01:00,81.0,69.0,29.67,SSE,158,9.0,15.0,68,0.00,,,2.08,,2013-05-03 21:01:00,
2013-05-03 17:11:00,81.0,69.0,29.67,SSE,158,9.0,15.0,68,0.00,,,2.08,,2013-05-03 21:11:00,
2013-05-03 17:21:00,81.0,69.0,29.68,ENE,71,6.0,16.0,68,0.00,,,2.08,,2013-05-03 21:21:00,
2013-05-03 17:33:00,81.0,70.0,29.67,East,98,7.0,12.0,69,0.00,,,1.50,,2013-05-03 21:33:00,
2013-05-03 17:42:00,81.0,70.0,29.67,East,98,7.0,12.0,69,0.00,,,1.50,,2013-05-03 21:42:00,
2013-05-03 17:53:00,81.0,70.0,29.67,East,100,7.0,13.0,70,0.00,,,1.50,,2013-05-03 21:53:00,
2013-05-03 18:03:00,80.0,68.0,29.66,ESE,121,8.0,16.0,66,0.00,,,1.50,,2013-05-03 22:03:00,
2013-05-03 18:13:00,80.0,68.0,29.66,ESE,121,8.0,16.0,66,0.00,,,1.50,,2013-05-03 22:13:00,
2013-05-03 18:22:00,79.0,69.0,29.67,SE,138,8.0,18.0,72,0.00,,,1.50,,2013-05-03 22:22:00,
2013-05-03 18:32:00,78.0,71.0,29.67,SSE,148,8.0,22.0,79,0.00,,,1.30,,2013-05-03 22:32:00,
2013-05-03 18:42:00,78.0,71.0,29.67,SSE,148,8.0,22.0,79,0.00,,,1.30,,2013-05-03 22:42:00,
2013-05-03 18:52:00,75.0,69.0,29.68,South,190,13.0,18.0,83,0.03,,,1.33,,2013-05-03 22:52:00,
2013-05-03 19:02:00,72.0,68.0,29.68,SSW,204,7.0,15.0,88,0.06,,,1.36,,2013-05-03 23:02:00,
2013-05-03 19:11:00,72.0,68.0,29.68,SSW,204,7.0,15.0,88,0.06,,,1.36,,2013-05-03 23:11:00,
2013-05-03 19:22:00,71.0,68.0,29.67,SSE,152,4.0,7.0,89,0.08,,,1.38,,2013-05-03 23:22:00,
2013-05-03 19:31:00,70.0,67.0,29.67,SSE,161,2.0,5.0,89,0.10,,,1.24,,2013-05-03 23:31:00,
2013-05-03 19:41:00,70.0,67.0,29.67,SSE,161,2.0,5.0,89,0.10,,,1.24,,2013-05-03 23:41:00,
2013-05-03 19:52:00,70.0,67.0,29.68,South,175,4.0,6.0,89,0.07,,,1.24,,2013-05-03 23:52:00,
2013-05-03 20:01:00,71.0,67.0,29.69,SW,219,4.0,7.0,88,0.04,,,1.24,,2013-05-04 00:01:00,
2013-05-03 20:11:00,71.0,67.0,29.69,SW,219,4.0,7.0,88,0.04,,,1.24,,2013-05-04 00:11:00,
2013-05-03 20:23:00,71.0,66.0,29.71,SSW,213,6.0,8.0,84,0.02,,,1.24,,2013-05-04 00:23:00,
2013-05-03 20:32:00,70.0,65.0,29.71,WNW,288,1.0,8.0,85,0.02,,,1.19,,2013-05-04 00:32:00,
2013-05-03 20:42:00,70.0,65.0,29.71,WNW,288,1.0,8.0,85,0.02,,,1.19,,2013-05-04 00:42:00,
2013-05-03 20:52:00,71.0,67.0,29.71,West,273,0.0,4.0,87,0.02,,,1.19,,2013-05-04 00:52:00,
2013-05-03 21:01:00,71.0,67.0,29.72,West,271,3.0,4.0,88,0.02,,,1.19,,2013-05-04 01:01:00,
2013-05-03 21:11:00,71.0,67.0,29.72,West,271,3.0,4.0,88,0.02,,,1.19,,2013-05-04 01:11:00,
2013-05-03 21:21:00,71.0,68.0,29.72,SW,220,2.0,5.0,89,0.02,,,1.19,,2013-05-04 01:21:00,
2013-05-03 21:32:00,71.0,68.0,29.72,SSW,213,3.0,7.0,89,0.00,,,1.17,,2013-05-04 01:32:00,
2013-05-03 21:42:00,71.0,68.0,29.72,SSW,213,0.0,2.0,89,0.00,,,1.17,,2013-05-04 01:42:00,
2013-05-03 21:52:00,71.0,68.0,29.72,SSW,213,0.0,2.0,89,0.00,,,1.17,,2013-05-04 01:52:00,
2013-05-03 22:02:00,71.0,68.0,29.72,SW,214,2.0,5.0,90,0.00,,,1.17,,2013-05-04 02:02:00,
2013-05-03 22:11:00,71.0,68.0,29.72,SW,214,2.0,5.0,90,0.00,,,1.17,,2013-05-04 02:11:00,
2013-05-03 22:21:00,71.0,68.0,29.73,SW,214,3.0,5.0,90,0.00,,,1.17,,2013-05-04 02:21:00,
2013-05-03 22:32:00,71.0,68.0,29.73,SSW,213,4.0,6.0,90,0.00,,,1.17,,2013-05-04 02:32:00,
2013-05-03 22:42:00,71.0,68.0,29.73,SSW,213,4.0,6.0,90,0.00,,,1.17,,2013-05-04 02:42:00,
2013-05-03 22:52:00,71.0,68.0,29.72,SW,214,4.0,6.0,90,0.00,,,1.17,,2013-05-04 02:52:00,
2013-05-03 23:02:00,71.0,68.0,29.72,SSW,213,3.0,5.0,90,0.00,,,1.17,,2013-05-04 03:02:00,
2013-05-03 23:11:00,71.0,68.0,29.72,SSW,213,3.0,5.0,90,0.00,,,1.17,,2013-05-04 03:11:00,
2013-05-03 23:22:00,71.0,68.0,29.72,SW,214,1.0,4.0,91,0.00,,,1.17,,2013-05-04 03:22:00,
2013-05-03 23:33:00,70.0,67.0,29.71,SSW,213,2.0,3.0,91,0.00,,,1.17,,2013-05-04 03:33:00,
2013-05-03 23:43:00,70.0,67.0,29.71,SSW,213,2.0,3.0,91,0.00,,,1.17,,2013-05-04 03:43:00,
2013-05-03 23:53:00,70.0,67.0,29.71,SW,214,0.0,3.0,91,0.00,,,1.17,,2013-05-04 03:53:00,